• MPC Preparation (Info)

  • MPEC 2023-F218 : 2023 FP7

    The following Minor Planet Electronic Circular may be linked-to from your own Web pages, but must not otherwise be redistributed electronically.

    A form allowing access to any MPEC is at the bottom of this page.


    Read MPEC 2023-F217 Read MPEC 2023-F219


    M.P.E.C. 2023-F218                               Issued 2023 March 29, 13:20 UT
    
         The Minor Planet Electronic Circulars contain information on unusual
             minor planets, routine data on comets and natural satellites,
             and occasional editorial announcements.  They are published
        on behalf of Division F of the International Astronomical Union by the
              Minor Planet Center, Smithsonian Astrophysical Observatory,
                              Cambridge, MA 02138, U.S.A.
    			  
                 Prepared using the Tamkin Foundation Computer Network
    
                                  MPC@CFA.HARVARD.EDU
                URL https://www.minorplanetcenter.net/    ISSN 1523-6714
    
                                    2023 FP7                                 
    
    
    Observations:
         K23F07P*1C2023 03 28.39471815 10 11.550+04 46 53.50         19.92GVEF218G96
         K23F07P 1C2023 03 28.39981015 10 08.900+04 43 10.20               VEF218G96
         K23F07P 1C2023 03 28.40492015 10 06.190+04 39 26.00               VEF218G96
         K23F07P 1C2023 03 28.41003415 10 03.470+04 35 43.40         20.00GVEF218G96
         K23F07P KC2023 03 28.43880615 09 48.300+04 14 47.60         20.40GVEF218I52
         K23F07P KC2023 03 28.43960015 09 47.920+04 14 13.80         21.01GVEF218I52
         K23F07P KC2023 03 28.44038615 09 47.500+04 13 39.10         20.02GVEF218I52
         K23F07P KC2023 03 28.44117115 09 47.070+04 13 05.30         20.31GVEF218I52
         K23F07P KC2023 03 28.49339115 09 20.178+03 35 31.16         20.34GVEF218I52
         K23F07P KC2023 03 28.49495715 09 19.397+03 34 23.77         19.91GVEF218I52
         K23F07P KC2023 03 28.49574015 09 18.976+03 33 50.33         20.74GVEF218I52
         K23F07P |C2023 03 29.34134 15 04 54.64 -05 17 35.4          20.4 VuEF218807
         K23F07P |C2023 03 29.34521 15 04 52.96 -05 19 47.2          20.9 VuEF218807
         K23F07P |C2023 03 29.34908 15 04 51.38 -05 21 57.6          20.9 VuEF218807
         K23F07P KC2023 03 29.36634115 04 59.693-05 38 29.11         19.96GVEF218I52
         K23F07P KC2023 03 29.36725415 04 59.351-05 38 59.89         20.57GVEF218I52
         K23F07P KC2023 03 29.36911315 04 58.516-05 40 02.46         20.07GVEF218I52
    
    Observer details:
    807 Cerro Tololo Observatory, La Serena.  Observers T. Linder, R. Holmes, L.
        Horn.  0.61-m f/6.5 Dall-Kirkham Astrograph + CCD.
    G96 Mt. Lemmon Survey.  Observer G. J. Leonard.  Measurers E. J. Christensen,
        D. Fay, J. B. Fazekas, D. C. Fuls, A. R. Gibbs, A. D. Grauer, H. Groeller,
        J. K. Hogan, R. A. Kowalski, S. M. Larson, G. J. Leonard, D. Rankin, R. L.
        Seaman, A. Serrano, F. C. Shelly, K. W. Wierzchos.  1.5-m reflector + 10K
        CCD.
    I52 Steward Observatory, Mt. Lemmon Station.  Observer J. B. Fazekas.
        Measurers E. J. Christensen, D. Fay, J. B. Fazekas, D. C. Fuls, A. R.
        Gibbs, A. D. Grauer, H. Groeller, J. K. Hogan, R. A. Kowalski, S. M.
        Larson, G. J. Leonard, D. Rankin, R. L. Seaman, A. Serrano, F. C. Shelly,
        K. W. Wierzchos.  1.0-m prime focus + CCD.
    
    Orbital elements:
    2023 FP7                                                 Earth MOID = 0.0154 AU
    Epoch 2023 Feb. 25.0 TT = JDT 2460000.5                 Veres                   
    M 356.76162              (2000.0)            P               Q                  
    n   0.41238551     Peri.  148.75978     -0.93472816     -0.35440500             
    a   1.7875867      Node    10.58076     +0.28965095     -0.80235046             
    e   0.4548847      Incl.    8.16665     +0.20587763     -0.48024040             
    P   2.39           H   27.44          G   0.15           U   7                  
    Residuals in seconds of arc
    230328 G96  0.2-  0.6-    230328 I52  0.1+  0.3-    230329 807 (1.4-  0.4-)
    230328 G96  0.4+  0.5-    230328 I52  0.1-  0.0     230329 807  0.2-  0.2-
    230328 G96  0.2+  0.7-    230328 I52  0.8-  0.0     230329 I52  0.0   0.2+
    230328 G96  0.0   0.6+    230328 I52  0.8-  0.2-    230329 I52  0.7+  0.1+
    230328 I52  0.3-  0.4-    230328 I52  1.2-  0.1-    230329 I52  0.1-  0.0
    230328 I52  0.3+  0.2+    230329 807 (1.1-  0.6+)
    
    Ephemeris:
    2023 FP7                 a,e,i = 1.79, 0.45, 8                   q = 0.9744
    Date    TT    R. A. (2000) Decl.     Delta      r    Elong.  Phase     V
    2023 02 27    02 13 57.2 +59 14 40   0.1277  0.9769    80.3    92.3    26.2
    ...
    2023 03 14    01 56 38.0 +68 22 16   0.06088 0.9803    75.4   101.2    25.0
    ...
    2023 03 22    19 46 11.0 +82 39 31   0.02652 0.9949    86.5    92.0    22.8
    ...
    2023 03 28    15 12 40.3 +09 54 25   0.01835 1.0112   136.3    42.9    20.4
    2023 03 29    15 06 42.0 -01 57 58   0.02091 1.0143   140.4    38.8    20.6
    2023 03 30    15 02 04.4 -10 57 27   0.02416 1.0176   142.1    37.1    20.9
    ...
    2023 04 05    14 46 40.2 -34 09 59   0.04954 1.0393   141.4    36.9    22.5
    ...
    2023 04 13    14 36 17.8 -41 57 02   0.08758 1.0738   143.1    34.1    23.7
    ...
    2023 04 28    14 24 01.6 -44 22 01   0.1649  1.1516   149.5    26.3    25.0
    
    M. P. C. Staff               (C) Copyright 2023 MPC           M.P.E.C. 2023-F218
    


    Read MPEC 2023-F217 Read MPEC 2023-F219


    MPEC number:

    Enter an MPEC number in one of the following forms:

    • 1997-B01 (the full form)
    • J97B01 (the packed version of the full form)
    • B01 (the abbreviated form)